| time (UTC) | temp F | wind direction | speed MPH | gust MPH | rain 1hr in | rain 24hr in | rain mn in | humidity % | barometer mb |
| 20260506004604 | 50 | 0 | 0.0 | 5.0 | 0.00 | 0.00 | 0.00 | 93 | 1009.5 |
| 20260506003034 | 50 | 153 | 1.0 | 5.0 | 0.00 | 0.00 | 0.00 | 93 | 1009.5 |
| 20260506001540 | 51 | 148 | 0.0 | 5.0 | 0.00 | 0.00 | 0.00 | 92 | 1009.4 |
| 20260506000043 | 51 | 157 | 0.0 | 4.0 | 0.00 | 0.00 | 0.00 | 92 | 1009.6 |
| 20260505234605 | 51 | 0 | 1.0 | 4.0 | 0.00 | 0.00 | 0.00 | 92 | 1009.8 |
| 20260505233036 | 51 | 0 | 0.0 | 5.0 | 0.00 | 0.00 | 0.00 | 92 | 1009.7 |
| 20260505231538 | 51 | 169 | 2.0 | 4.0 | 0.00 | 0.00 | 0.00 | 92 | 1009.8 |
| 20260505230036 | 51 | 0 | 0.0 | 1.0 | 0.00 | 0.00 | 0.00 | 91 | 1009.8 |
| 20260505224539 | 51 | 0 | 0.0 | 3.0 | 0.00 | 0.00 | 0.00 | 91 | 1009.8 |
| 20260505223052 | 52 | 0 | 0.0 | 2.0 | 0.00 | 0.00 | 0.00 | 91 | 1009.9 |
| 20260505221553 | 52 | 0 | 0.0 | 1.0 | 0.00 | 0.00 | 0.00 | 90 | 1010.0 |
| 20260505220037 | 53 | 0 | 0.0 | 1.0 | 0.00 | 0.00 | 0.00 | 90 | 1010.2 |
| 20260505215021 | 53 | 0 | 0.0 | 0.0 | 0.00 | 0.00 | 0.00 | 89 | 1010.2 |
| 20260505213035 | 53 | 0 | 0.0 | 2.0 | 0.00 | 0.00 | 0.00 | 88 | 1010.4 |
| 20260505211541 | 54 | 0 | 0.0 | 0.0 | 0.00 | 0.00 | 0.00 | 88 | 1010.6 |
| 20260505210040 | 54 | 0 | 0.0 | 3.0 | 0.00 | 0.00 | 0.00 | 87 | 1010.7 |
| 20260505204539 | 55 | 0 | 0.0 | 3.0 | 0.00 | 0.00 | 0.00 | 85 | 1010.8 |
| 20260505203037 | 55 | 248 | 2.0 | 5.0 | 0.00 | 0.00 | 0.00 | 85 | 1010.8 |
| 20260505201542 | 56 | 242 | 2.0 | 7.0 | 0.00 | 0.00 | 0.00 | 84 | 1010.7 |
| 20260505200045 | 56 | 290 | 2.0 | 8.0 | 0.00 | 0.00 | 0.00 | 83 | 1010.4 |
| 20260505194540 | 56 | 218 | 1.0 | 9.0 | 0.00 | 0.00 | 0.00 | 82 | 1010.3 |
| 20260505193038 | 57 | 278 | 2.0 | 7.0 | 0.00 | 0.00 | 0.00 | 81 | 1010.3 |
| 20260505191536 | 57 | 232 | 2.0 | 8.0 | 0.00 | 0.00 | 0.00 | 79 | 1010.0 |
| 20260505190045 | 58 | 284 | 1.0 | 9.0 | 0.00 | 0.00 | 0.00 | 78 | 1010.0 |
| 20260505185000 | 59 | 250 | 2.0 | 9.0 | 0.00 | 0.00 | 0.00 | 76 | 1009.8 |
| 20260505183045 | 60 | 172 | 3.0 | 11.0 | 0.00 | 0.00 | 0.00 | 73 | 1009.7 |
| 20260505181539 | 61 | 260 | 3.0 | 14.0 | 0.00 | 0.00 | 0.00 | 72 | 1009.6 |
| 20260505180037 | 61 | 215 | 6.0 | 14.0 | 0.00 | 0.00 | 0.00 | 70 | 1009.4 |
| 20260505174536 | 62 | 260 | 6.0 | 12.0 | 0.00 | 0.00 | 0.00 | 68 | 1009.4 |
| 20260505173046 | 63 | 238 | 5.0 | 15.0 | 0.00 | 0.00 | 0.00 | 67 | 1009.5 |
| 20260505171539 | 64 | 309 | 6.0 | 15.0 | 0.00 | 0.00 | 0.00 | 65 | 1009.5 |
| 20260505170039 | 64 | 185 | 5.0 | 16.0 | 0.00 | 0.00 | 0.00 | 65 | 1009.7 |
| 20260505164538 | 65 | 266 | 6.0 | 12.0 | 0.00 | 0.00 | 0.00 | 65 | 1009.5 |
| 20260505163043 | 65 | 288 | 5.0 | 16.0 | 0.00 | 0.00 | 0.00 | 65 | 1009.6 |
| 20260505161543 | 64 | 265 | 4.0 | 15.0 | 0.00 | 0.00 | 0.00 | 67 | 1009.7 |
| 20260505153045 | 65 | 223 | 5.0 | 13.0 | 0.00 | 0.00 | 0.00 | 62 | 1009.5 |
| 20260505151541 | 66 | 293 | 5.0 | 12.0 | 0.00 | 0.00 | 0.00 | 61 | 1009.5 |
| 20260505124545 | 65 | 238 | 3.0 | 13.0 | 0.00 | 0.01 | 0.00 | 68 | 1009.8 |
| 20260505123039 | 64 | 267 | 3.0 | 10.0 | 0.00 | 0.01 | 0.00 | 71 | 1009.7 |
| 20260505121540 | 66 | 235 | 4.0 | 11.0 | 0.00 | 0.01 | 0.00 | 67 | 1009.7 |
| 20260505120048 | 66 | 290 | 2.0 | 9.0 | 0.00 | 0.01 | 0.00 | 71 | 1009.9 |
| 20260505114544 | 63 | 245 | 3.0 | 8.0 | 0.00 | 0.10 | 0.00 | 70 | 1009.9 |
| 20260505113038 | 64 | 297 | 4.0 | 10.0 | 0.00 | 0.10 | 0.00 | 69 | 1010.1 |
| 20260505111538 | 63 | 309 | 3.0 | 10.0 | 0.00 | 0.10 | 0.00 | 72 | 1010.2 |
| 20260505101543 | 61 | 0 | 1.0 | 10.0 | 0.00 | 0.11 | 0.00 | 77 | 1010.5 |
| 20260505100040 | 61 | 290 | 3.0 | 10.0 | 0.00 | 0.11 | 0.00 | 78 | 1010.6 |
| 20260505094536 | 61 | 355 | 1.0 | 10.0 | 0.00 | 0.37 | 0.00 | 82 | 1010.6 |
| 20260505093036 | 60 | 296 | 4.0 | 10.0 | 0.00 | 0.37 | 0.00 | 81 | 1010.6 |
| 20260505091542 | 58 | 263 | 3.0 | 8.0 | 0.00 | 0.37 | 0.00 | 84 | 1010.7 |
| 20260505090044 | 58 | 273 | 0.0 | 8.0 | 0.00 | 0.37 | 0.00 | 85 | 1010.7 |
| 20260505084545 | 58 | 0 | 0.0 | 6.0 | 0.00 | 0.55 | 0.00 | 88 | 1010.7 |
| 20260505083037 | 56 | 288 | 1.0 | 8.0 | 0.00 | 0.55 | 0.00 | 89 | 1010.6 |
| 20260505081541 | 56 | 275 | 1.0 | 7.0 | 0.00 | 0.55 | 0.00 | 90 | 1010.6 |
| 20260505080040 | 56 | 247 | 1.0 | 6.0 | 0.00 | 0.55 | 0.00 | 91 | 1010.6 |
| 20260505074540 | 56 | 302 | 0.0 | 4.0 | 0.00 | 0.56 | 0.00 | 93 | 1010.5 |
| 20260505073043 | 55 | 0 | 0.0 | 6.0 | 0.00 | 0.56 | 0.00 | 95 | 1010.6 |
| 20260505071536 | 55 | 0 | 1.0 | 5.0 | 0.00 | 0.56 | 0.00 | 94 | 1010.7 |
| 20260505070045 | 54 | 0 | 0.0 | 4.0 | 0.00 | 0.56 | 0.00 | 95 | 1010.8 |
| 20260505064536 | 54 | 0 | 0.0 | 0.0 | 0.00 | 0.56 | 0.00 | 95 | 1010.8 |
| 20260505063043 | 53 | 0 | 0.0 | 4.0 | 0.00 | 0.56 | 0.00 | 95 | 1010.8 |
| 20260505061542 | 53 | 0 | 0.0 | 4.0 | 0.00 | 0.56 | 0.00 | 95 | 1010.7 |
| 20260505060039 | 52 | 285 | 2.0 | 6.0 | 0.00 | 0.56 | 0.00 | 95 | 1010.6 |
| 20260505054539 | 52 | 263 | 2.0 | 6.0 | 0.00 | 0.56 | 0.00 | 95 | 1010.6 |
| 20260505053036 | 52 | 263 | 1.0 | 6.0 | 0.00 | 0.56 | 0.00 | 95 | 1010.5 |
| 20260505051541 | 52 | 0 | 0.0 | 4.0 | 0.00 | 0.56 | 0.00 | 95 | 1010.5 |
| 20260505041549 | 53 | 272 | 1.0 | 6.0 | 0.00 | 0.56 | 0.00 | 94 | 1010.7 |
| 20260505040050 | 53 | 0 | 1.0 | 4.0 | 0.00 | 0.56 | 0.00 | 93 | 1010.7 |
| 20260505034539 | 53 | 272 | 1.0 | 4.0 | 0.00 | 0.56 | 0.00 | 93 | 1010.8 |
| 20260505033037 | 53 | 272 | 1.0 | 8.0 | 0.00 | 0.56 | 0.00 | 93 | 1010.9 |
| 20260505031542 | 53 | 271 | 1.0 | 6.0 | 0.00 | 0.56 | 0.00 | 93 | 1010.9 |
| 20260505030041 | 54 | 290 | 0.0 | 7.0 | 0.00 | 0.56 | 0.00 | 93 | 1011.0 |
| 20260505024553 | 54 | 281 | 1.0 | 6.0 | 0.00 | 0.56 | 0.00 | 93 | 1010.9 |
| 20260505023040 | 54 | 265 | 2.0 | 7.0 | 0.00 | 0.56 | 0.00 | 93 | 1010.8 |
| 20260505021539 | 54 | 271 | 1.0 | 6.0 | 0.00 | 0.56 | 0.00 | 93 | 1010.9 |
| 20260505020037 | 54 | 278 | 2.0 | 5.0 | 0.00 | 0.56 | 0.00 | 93 | 1010.9 |
| 20260505014553 | 54 | 0 | 1.0 | 3.0 | 0.00 | 0.56 | 0.00 | 93 | 1011.1 |
| 20260505013041 | 54 | 270 | 0.0 | 4.0 | 0.00 | 0.56 | 0.00 | 92 | 1011.0 |
| 20260505011535 | 54 | 275 | 1.0 | 6.0 | 0.00 | 0.56 | 0.00 | 92 | 1011.0 |
| 20260505010052 | 54 | 273 | 2.0 | 7.0 | 0.00 | 0.56 | 0.00 | 92 | 1011.2 |